FENGYUN 1C DEB

Satellite information

Favourite Embed

Satellite Type and Status

DEBRISIN ORBIT

Key statistics

Satellite FENGYUN 1C DEB at a glance.

Uptime

9618

Days in orbit

Revolutions

≈ 14.4

Per day

Orbit

SSO

Sun Synchronous Orbit

Inclination

100.4

Latest

Satellite identification and parameters

Extended collection of information and parameters for FENGYUN 1C DEB.

Object identification

Identified? True

Debris? True

Object name: FENGYUN 1C DEB

International designator: 1999-025CXM

Object number (NORAD): 32320

Object ID (CCSDS): 32320

Country: PEOPLES REPUBLIC OF CHINA (PRC)

Current information (Y/N): Y

RCS size: SMALL

Orbital parameters

Period: 100.316 minutes

Inclination: 100.3844 deg

SMA: 7151.641 km

Apoapsis: 813.763 km

Periapsis: 733.25 km

RAAN: 88.1601 deg

Eccentricy: 0.00562897

Argument of periapsis: 318.3864 deg

Mean anomaly: 41.3039 deg

Mean motion: 14.35470153 rev/day

Mean motion (dot): 0.00002853 rev/day2

B* drag term: 0.00099508001 1/REarth

Two-line elements (TLE)

Creation date: Sept. 8, 2025, 3:16 a.m.

Reference frame: TEME

Reference center: EARTH

Epoch: Sept. 7, 2025, 12:15 p.m. UTC

TLE line 0: 0 FENGYUN 1C DEB

TLE line 1: 1 32320U 99025CXM 25250.51093340 .00002853 00000-0 99508-3 0 9996

TLE line 2: 2 32320 100.3844 88.1601 0056290 318.3864 41.3039 14.35470153607928

Live tracking on map

Real-time ground track for satellite FENGYUN 1C DEB.

In-orbit conjunctions

A list of the most updated potential collisions computed for object FENGYUN 1C DEB.

Target Orbit TCA Probability of collision Miss distance Type
CZ-4 DEB SSO 2025-07-27 10:43:59 0.000137357 414.0 (m) DEBRIS
ARIANE 1 DEB SSO 2025-05-15 22:17:51 0.0001387668 224.0 (m) DEBRIS
CZ-6A DEB LEO 2024-11-26 08:23:39 0.0001802533 353.0 (m) DEBRIS
TRIAD 1 SSO 2024-08-30 19:04:44 0.000148467 875.0 (m) PAYLOAD

Associated space launch

Chinese polar orbiting meteorological satellite

FENGYUN 1C DEB was lifted into orbit during the mission ‘Long March 4B | Feng Yun 1C’, on board a Long March 4B space rocket.

The launch took place on May 10, 1999, 1:33 a.m. from Launch Complex 7.

For more information about the launch, click the button.

Launch to space Long March 4B | Feng Yun 1C
Long March 4B | Feng Yun 1C

Agency: N/A

Status: Launch Successful

Launch date: May 10, 1999, 1:33 a.m. UTC

Rocket: Long March 4B

Launch pad: Launch Complex 7

Location: Taiyuan Satellite Launch Center, People's Republic of China

...

Latest news about this satellite

There are no fresh news available about this satellite. Check back as we update our databases every day.


Newsletter sign-up

Weekly statistics, charts and insights to help you stay on top of the space industry.